This is the latest recevied weather packets stored in our database for station/object HS2LXA-13. If no packets are shown the sender has not sent any weather packets the latest 10 day(s).
| Time | Temp. | Humidity | Pressure | Rain* | Wind** | Luminosity | Snow |
|---|---|---|---|---|---|---|---|
| 1777625960 | 33.33° C | 78% | 1008.3 hPa | 2.29 mm | - | 0 W/m² | - |
| 1777625357 | 32.78° C | 78% | 1008.4 hPa | 2.29 mm | - | 0 W/m² | - |
| 1777624761 | 33.33° C | 78% | 1008.6 hPa | 2.29 mm | - | 0 W/m² | - |
| 1777624154 | 32.78° C | 77% | 1008.8 hPa | 2.29 mm | - | 0 W/m² | - |
| 1777623552 | 33.33° C | 78% | 1008.8 hPa | 2.29 mm | - | 0 W/m² | - |
| 1777622952 | 33.33° C | 77% | 1008.9 hPa | 2.29 mm | - | 0 W/m² | - |
| 1777621810 | 33.33° C | 77% | 1009 hPa | 2.29 mm | - | 0 W/m² | - |
| 1777621210 | 33.33° C | 78% | 1009.1 hPa | 2.29 mm | - | 0 W/m² | - |
| 1777620609 | 33.89° C | 77% | 1009.3 hPa | 2.29 mm | - | 0 W/m² | - |
| 1777620006 | 33.33° C | 76% | 1009.4 hPa | 2.29 mm | - | 0 W/m² | - |
| 1777619405 | 33.33° C | 77% | 1009.5 hPa | 2.29 mm | - | 0 W/m² | - |
| 1777618803 | 33.89° C | 78% | 1009.4 hPa | 2.29 mm | - | 0 W/m² | - |
| 1777618202 | 32.78° C | 78% | 1009.6 hPa | 2.29 mm | - | 0 W/m² | - |
| 1777617603 | 33.33° C | 78% | 1009.6 hPa | 2.29 mm | - | 0 W/m² | - |
| 1777617000 | 33.33° C | 78% | 1009.3 hPa | 2.29 mm | - | 0 W/m² | - |
| 1777616397 | 33.33° C | 79% | 1009.4 hPa | 2.29 mm | - | 0 W/m² | - |
| 1777615795 | 32.78° C | 80% | 1009.7 hPa | 2.29 mm | - | 0 W/m² | - |
| 1777615192 | 33.33° C | 80% | 1009.9 hPa | 2.29 mm | - | 0 W/m² | - |
| 1777614587 | 33.33° C | 77% | 1010.3 hPa | 2.29 mm | - | 0 W/m² | - |
| 1777613986 | 32.78° C | 77% | 1010.3 hPa | 2.29 mm | - | 0 W/m² | - |
| 1777613386 | 32.22° C | 76% | 1010.5 hPa | 2.29 mm | - | 0 W/m² | - |
| 1777612779 | 32.78° C | 78% | 1010.7 hPa | 2.29 mm | - | 0 W/m² | - |
| 1777612177 | 32.78° C | 80% | 1010.9 hPa | 2.29 mm | - | 0 W/m² | - |
| 1777611576 | 32.22° C | 80% | 1011.1 hPa | 2.29 mm | - | 0 W/m² | - |
| 1777610974 | 32.22° C | 80% | 1011.1 hPa | 2.29 mm | - | 0 W/m² | - |
* Rain latest hour (hover to see other rain measurements)
** Current wind speed in m/s (hover to see current wind gust speed)